Year,Month,Day,Hour,Minute,Value (Times are PST for windgust in km/hr)
2019,06,06,00,00,4.80
2019,06,06,00,01,6.40
2019,06,06,00,02,8.10
2019,06,06,00,03,8.10
2019,06,06,00,04,4.80
2019,06,06,00,05,6.40
2019,06,06,00,06,4.80
2019,06,06,00,07,4.80
2019,06,06,00,08,3.20
2019,06,06,00,09,4.80
2019,06,06,00,10,6.40
2019,06,06,00,11,4.80
2019,06,06,00,12,3.20
2019,06,06,00,13,1.60
2019,06,06,00,14,3.20
2019,06,06,00,15,9.60
2019,06,06,00,16,6.40
2019,06,06,00,17,4.80
2019,06,06,00,18,4.80
2019,06,06,00,19,3.20
2019,06,06,00,20,1.60
2019,06,06,00,21,1.60
2019,06,06,00,22,1.60
2019,06,06,00,23,1.60
2019,06,06,00,24,1.60
2019,06,06,00,25,4.80
2019,06,06,00,26,4.80
2019,06,06,00,27,3.20
2019,06,06,00,28,1.60
2019,06,06,00,29,1.60
2019,06,06,00,30,4.80
2019,06,06,00,31,4.80
2019,06,06,00,32,6.40
2019,06,06,00,33,4.80
2019,06,06,00,34,4.80
2019,06,06,00,35,4.80
2019,06,06,00,36,6.40
2019,06,06,00,37,4.80
2019,06,06,00,38,4.80
2019,06,06,00,39,4.80
2019,06,06,00,40,4.80
2019,06,06,00,41,4.80
2019,06,06,00,42,4.80
2019,06,06,00,43,6.40
2019,06,06,00,44,6.40
2019,06,06,00,45,8.10
2019,06,06,00,46,8.10
2019,06,06,00,47,6.40
2019,06,06,00,48,8.10
2019,06,06,00,49,6.40
2019,06,06,00,50,4.80
2019,06,06,00,51,4.80
2019,06,06,00,52,4.80
2019,06,06,00,53,4.80
2019,06,06,00,54,4.80
2019,06,06,00,55,4.80
2019,06,06,00,56,4.80
2019,06,06,00,57,6.40
2019,06,06,00,58,4.80
2019,06,06,00,59,9.60
2019,06,06,01,00,8.10
2019,06,06,01,01,6.40
2019,06,06,01,02,8.10
2019,06,06,01,03,4.80
2019,06,06,01,04,8.10
2019,06,06,01,05,6.40
2019,06,06,01,06,4.80
2019,06,06,01,07,4.80
2019,06,06,01,08,1.60
2019,06,06,01,09,4.80
2019,06,06,01,10,3.20
2019,06,06,01,11,6.40
2019,06,06,01,12,4.80
2019,06,06,01,13,1.60
2019,06,06,01,14,9.60
2019,06,06,01,15,9.60
2019,06,06,01,16,4.80
2019,06,06,01,17,3.20
2019,06,06,01,18,6.40
2019,06,06,01,19,4.80
2019,06,06,01,20,4.80
2019,06,06,01,21,4.80
2019,06,06,01,22,4.80
2019,06,06,01,23,3.20
2019,06,06,01,24,1.60
2019,06,06,01,25,4.80
2019,06,06,01,26,4.80
2019,06,06,01,27,6.40
2019,06,06,01,28,6.40
2019,06,06,01,29,4.80
2019,06,06,01,30,8.10
2019,06,06,01,31,6.40
2019,06,06,01,32,9.60
2019,06,06,01,33,11.30
2019,06,06,01,34,6.40
2019,06,06,01,35,3.20
2019,06,06,01,36,3.20
2019,06,06,01,37,6.40
2019,06,06,01,38,4.80
2019,06,06,01,39,8.10
2019,06,06,01,40,6.40
2019,06,06,01,41,4.80
2019,06,06,01,42,4.80
2019,06,06,01,43,4.80
2019,06,06,01,44,6.40
2019,06,06,01,45,9.60
2019,06,06,01,46,6.40
2019,06,06,01,47,6.40
2019,06,06,01,48,4.80
2019,06,06,01,49,6.40
2019,06,06,01,50,4.80
2019,06,06,01,51,4.80
2019,06,06,01,52,3.20
2019,06,06,01,53,3.20
2019,06,06,01,54,6.40
2019,06,06,01,55,4.80
2019,06,06,01,56,4.80
2019,06,06,01,57,6.40
2019,06,06,01,58,6.40
2019,06,06,01,59,4.80
2019,06,06,02,00,4.80
2019,06,06,02,01,3.20
2019,06,06,02,02,1.60
2019,06,06,02,03,4.80
2019,06,06,02,04,6.40
2019,06,06,02,05,6.40
2019,06,06,02,06,3.20
2019,06,06,02,07,4.80
2019,06,06,02,08,4.80
2019,06,06,02,09,3.20
2019,06,06,02,10,3.20
2019,06,06,02,11,6.40
2019,06,06,02,12,3.20
2019,06,06,02,13,3.20
2019,06,06,02,14,3.20
2019,06,06,02,15,1.60
2019,06,06,02,16,1.60
2019,06,06,02,17,1.60
2019,06,06,02,19,1.60
2019,06,06,02,20,1.60
2019,06,06,02,22,1.60
2019,06,06,02,23,3.20
2019,06,06,02,24,3.20
2019,06,06,02,25,1.60
2019,06,06,02,26,1.60
2019,06,06,02,27,1.60
2019,06,06,02,36,3.20
2019,06,06,02,37,4.80
2019,06,06,02,38,4.80
2019,06,06,02,39,3.20
2019,06,06,02,40,3.20
2019,06,06,02,41,3.20
2019,06,06,02,42,3.20
2019,06,06,02,43,1.60
2019,06,06,02,44,1.60
2019,06,06,03,31,3.20
2019,06,06,03,32,4.80
2019,06,06,03,33,4.80
2019,06,06,03,34,4.80
2019,06,06,03,35,3.20
2019,06,06,03,36,3.20
2019,06,06,03,37,3.20
2019,06,06,03,38,3.20
2019,06,06,03,39,3.20
2019,06,06,03,40,3.20
2019,06,06,03,41,3.20
2019,06,06,03,42,3.20
2019,06,06,03,43,1.60
2019,06,06,03,49,1.60
2019,06,06,03,50,1.60
2019,06,06,03,51,1.60
2019,06,06,03,52,1.60
2019,06,06,04,00,3.20
2019,06,06,04,01,3.20
2019,06,06,04,02,3.20
2019,06,06,04,03,1.60
2019,06,06,04,09,1.60
2019,06,06,04,10,3.20
2019,06,06,04,11,3.20
2019,06,06,04,12,3.20
2019,06,06,04,13,3.20
2019,06,06,04,14,1.60
2019,06,06,04,18,1.60
2019,06,06,04,19,1.60
2019,06,06,04,21,3.20
2019,06,06,04,22,1.60
2019,06,06,04,23,1.60
2019,06,06,04,27,1.60
2019,06,06,04,28,3.20
2019,06,06,04,29,3.20
2019,06,06,04,30,3.20
2019,06,06,04,31,3.20
2019,06,06,04,32,4.80
2019,06,06,04,33,4.80
2019,06,06,04,34,4.80
2019,06,06,04,35,4.80
2019,06,06,04,36,3.20
2019,06,06,04,37,1.60
2019,06,06,04,38,3.20
2019,06,06,04,39,1.60
2019,06,06,05,08,1.60
2019,06,06,05,09,1.60
2019,06,06,05,10,1.60
2019,06,06,05,16,3.20
2019,06,06,05,17,4.80
2019,06,06,05,18,4.80
2019,06,06,05,19,4.80
2019,06,06,05,20,4.80
2019,06,06,05,21,4.80
2019,06,06,05,22,6.40
2019,06,06,05,23,4.80
2019,06,06,05,24,3.20
2019,06,06,05,25,3.20
2019,06,06,05,26,3.20
2019,06,06,05,27,1.60
2019,06,06,05,28,4.80
2019,06,06,05,29,3.20
2019,06,06,05,30,3.20
2019,06,06,05,31,3.20
2019,06,06,05,32,3.20
2019,06,06,05,33,3.20
2019,06,06,05,34,3.20
2019,06,06,05,35,3.20
2019,06,06,05,36,3.20
2019,06,06,05,37,3.20
2019,06,06,05,38,3.20
2019,06,06,05,39,3.20
2019,06,06,05,40,3.20
2019,06,06,05,41,4.80
2019,06,06,05,42,3.20
2019,06,06,05,43,4.80
2019,06,06,05,44,4.80
2019,06,06,05,45,3.20
2019,06,06,05,46,1.60
2019,06,06,05,47,1.60
2019,06,06,06,44,3.20
2019,06,06,06,45,4.80
2019,06,06,06,46,3.20
2019,06,06,06,47,3.20
2019,06,06,06,48,3.20
2019,06,06,06,49,3.20
2019,06,06,06,55,1.60
2019,06,06,06,56,3.20
2019,06,06,06,57,1.60
2019,06,06,06,58,1.60
2019,06,06,07,06,1.60
2019,06,06,07,07,1.60
2019,06,06,07,08,1.60
2019,06,06,07,09,1.60
2019,06,06,07,10,1.60
2019,06,06,07,11,1.60
2019,06,06,07,15,1.60
2019,06,06,07,16,1.60
2019,06,06,07,17,3.20
2019,06,06,07,18,1.60
2019,06,06,07,19,1.60
2019,06,06,07,28,3.20
2019,06,06,07,29,1.60
2019,06,06,07,31,3.20
2019,06,06,07,32,1.60
2019,06,06,07,33,3.20
2019,06,06,07,34,3.20
2019,06,06,07,35,4.80
2019,06,06,07,36,3.20
2019,06,06,07,37,3.20
2019,06,06,07,38,3.20
2019,06,06,07,39,3.20
2019,06,06,07,40,3.20
2019,06,06,07,41,3.20
2019,06,06,07,42,1.60
2019,06,06,07,43,1.60
2019,06,06,07,44,1.60
2019,06,06,07,45,1.60
2019,06,06,07,46,1.60
2019,06,06,07,47,3.20
2019,06,06,07,48,3.20
2019,06,06,07,49,1.60
2019,06,06,07,50,1.60
2019,06,06,07,51,3.20
2019,06,06,07,52,3.20
2019,06,06,07,53,3.20
2019,06,06,07,54,3.20
2019,06,06,07,56,1.60
2019,06,06,07,58,1.60
2019,06,06,07,59,3.20
2019,06,06,08,00,1.60
2019,06,06,08,03,1.60
2019,06,06,08,04,4.80
2019,06,06,08,05,4.80
2019,06,06,08,06,3.20
2019,06,06,08,09,4.80
2019,06,06,08,10,4.80
2019,06,06,08,11,3.20
2019,06,06,08,12,3.20
2019,06,06,08,13,4.80
2019,06,06,08,14,4.80
2019,06,06,08,15,6.40
2019,06,06,08,16,6.40
2019,06,06,08,17,6.40
2019,06,06,08,18,6.40
2019,06,06,08,19,3.20
2019,06,06,08,20,6.40
2019,06,06,08,21,4.80
2019,06,06,08,22,3.20
2019,06,06,08,23,3.20
2019,06,06,08,24,4.80
2019,06,06,08,25,6.40
2019,06,06,08,26,8.10
2019,06,06,08,27,4.80
2019,06,06,08,28,3.20
2019,06,06,08,29,3.20
2019,06,06,08,30,4.80
2019,06,06,08,31,3.20
2019,06,06,08,32,3.20
2019,06,06,08,33,3.20
2019,06,06,08,34,4.80
2019,06,06,08,35,6.40
2019,06,06,08,36,8.10
2019,06,06,08,37,8.10
2019,06,06,08,38,8.10
2019,06,06,08,39,6.40
2019,06,06,08,40,11.30
2019,06,06,08,41,11.30
2019,06,06,08,42,12.90
2019,06,06,08,43,9.60
2019,06,06,08,44,4.80
2019,06,06,08,45,6.40
2019,06,06,08,46,6.40
2019,06,06,08,47,6.40
2019,06,06,08,48,8.10
2019,06,06,08,49,8.10
2019,06,06,08,50,4.80
2019,06,06,08,51,6.40
2019,06,06,08,52,6.40
2019,06,06,08,53,9.60
2019,06,06,08,54,8.10
2019,06,06,08,55,9.60
2019,06,06,08,56,9.60
2019,06,06,08,57,8.10
2019,06,06,08,58,8.10
2019,06,06,08,59,4.80
2019,06,06,09,00,8.10
2019,06,06,09,01,9.60
2019,06,06,09,02,9.60
2019,06,06,09,03,9.60
2019,06,06,09,04,6.40
2019,06,06,09,05,6.40
2019,06,06,09,06,8.10
2019,06,06,09,07,8.10
2019,06,06,09,08,4.80
2019,06,06,09,09,6.40
2019,06,06,09,10,8.10
2019,06,06,09,11,8.10
2019,06,06,09,12,8.10
2019,06,06,09,13,8.10
2019,06,06,09,14,6.40
2019,06,06,09,15,9.60
2019,06,06,09,16,8.10
2019,06,06,09,17,8.10
2019,06,06,09,18,11.30
2019,06,06,09,19,8.10
2019,06,06,09,20,4.80
2019,06,06,09,21,6.40
2019,06,06,09,22,8.10
2019,06,06,09,23,8.10
2019,06,06,09,24,8.10
2019,06,06,09,25,4.80
2019,06,06,09,26,3.20
2019,06,06,09,27,6.40
2019,06,06,09,28,8.10
2019,06,06,09,29,6.40
2019,06,06,09,30,4.80
2019,06,06,09,31,4.80
2019,06,06,09,32,12.90
2019,06,06,09,33,6.40
2019,06,06,09,34,6.40
2019,06,06,09,35,17.70
2019,06,06,09,36,17.70
2019,06,06,09,37,11.30
2019,06,06,09,38,8.10
2019,06,06,09,39,11.30
2019,06,06,09,40,11.30
2019,06,06,09,41,6.40
2019,06,06,09,42,17.70
2019,06,06,09,43,12.90
2019,06,06,09,44,11.30
2019,06,06,09,45,6.40
2019,06,06,09,46,8.10
2019,06,06,09,47,14.50
2019,06,06,09,48,12.90
2019,06,06,09,49,9.60
2019,06,06,09,50,6.40
2019,06,06,09,51,14.50
2019,06,06,09,52,16.10
2019,06,06,09,53,12.90
2019,06,06,09,54,9.60
2019,06,06,09,55,9.60
2019,06,06,09,56,9.60
2019,06,06,09,57,9.60
2019,06,06,09,58,9.60
2019,06,06,09,59,9.60
2019,06,06,10,00,11.30
2019,06,06,10,01,19.30
2019,06,06,10,02,14.50
2019,06,06,10,03,11.30
2019,06,06,10,04,9.60
2019,06,06,10,05,9.60
2019,06,06,10,06,8.10
2019,06,06,10,07,9.60
2019,06,06,10,08,16.10
2019,06,06,10,09,14.50
2019,06,06,10,10,12.90
2019,06,06,10,11,14.50
2019,06,06,10,12,12.90
2019,06,06,10,13,9.60
2019,06,06,10,14,8.10
2019,06,06,10,15,16.10
2019,06,06,10,16,19.30
2019,06,06,10,17,16.10
2019,06,06,10,18,12.90
2019,06,06,10,19,19.30
2019,06,06,10,20,17.70
2019,06,06,10,21,14.50
2019,06,06,10,22,11.30
2019,06,06,10,23,19.30
2019,06,06,10,24,17.70
2019,06,06,10,25,14.50
2019,06,06,10,26,16.10
2019,06,06,10,27,22.50
2019,06,06,10,28,17.70
2019,06,06,10,29,17.70
2019,06,06,10,30,17.70
2019,06,06,10,31,19.30
2019,06,06,10,32,22.50
2019,06,06,10,33,12.90
2019,06,06,10,34,24.20
2019,06,06,10,35,17.70
2019,06,06,10,36,16.10
2019,06,06,10,37,12.90
2019,06,06,10,38,16.10
2019,06,06,10,39,16.10
2019,06,06,10,40,16.10
2019,06,06,10,41,17.70
2019,06,06,10,42,17.70
2019,06,06,10,43,16.10
2019,06,06,10,44,19.30
2019,06,06,10,45,16.10
2019,06,06,10,46,9.60
2019,06,06,10,47,11.30
2019,06,06,10,48,19.30
2019,06,06,10,49,19.30
2019,06,06,10,50,14.50
2019,06,06,10,51,24.20
2019,06,06,10,52,22.50
2019,06,06,10,53,20.90
2019,06,06,10,54,19.30
2019,06,06,10,55,16.10
2019,06,06,10,56,24.20
2019,06,06,10,57,16.10
2019,06,06,10,58,14.50
2019,06,06,10,59,12.90
2019,06,06,11,00,11.30
2019,06,06,11,01,16.10
2019,06,06,11,02,16.10
2019,06,06,11,03,22.50
2019,06,06,11,04,20.90
2019,06,06,11,05,16.10
2019,06,06,11,06,22.50
2019,06,06,11,07,17.70
2019,06,06,11,08,20.90
2019,06,06,11,09,19.30
2019,06,06,11,10,20.90
2019,06,06,11,11,24.20
2019,06,06,11,12,19.30
2019,06,06,11,13,22.50
2019,06,06,11,14,20.90
2019,06,06,11,15,12.90
2019,06,06,11,16,20.90
2019,06,06,11,17,16.10
2019,06,06,11,18,20.90
2019,06,06,11,19,20.90
2019,06,06,11,20,17.70
2019,06,06,11,21,20.90
2019,06,06,11,22,19.30
2019,06,06,11,23,19.30
2019,06,06,11,24,17.70
2019,06,06,11,25,19.30
2019,06,06,11,26,20.90
2019,06,06,11,27,17.70
2019,06,06,11,28,19.30
2019,06,06,11,29,17.70
2019,06,06,11,30,24.20
2019,06,06,11,31,24.20
2019,06,06,11,32,19.30
2019,06,06,11,33,19.30
2019,06,06,11,34,20.90
2019,06,06,11,35,19.30
2019,06,06,11,36,20.90
2019,06,06,11,37,22.50
2019,06,06,11,38,22.50
2019,06,06,11,39,12.90
2019,06,06,11,40,12.90
2019,06,06,11,41,6.40
2019,06,06,11,42,24.20
2019,06,06,11,43,17.70
2019,06,06,11,44,14.50
2019,06,06,11,45,11.30
2019,06,06,11,46,12.90
2019,06,06,11,47,25.70
2019,06,06,11,48,19.30
2019,06,06,11,49,22.50
2019,06,06,11,50,6.40
2019,06,06,11,51,8.10
2019,06,06,11,52,9.60
2019,06,06,11,53,9.60
2019,06,06,11,54,12.90
2019,06,06,11,55,6.40
2019,06,06,11,56,19.30
2019,06,06,11,57,19.30
2019,06,06,11,58,11.30
2019,06,06,11,59,11.30
2019,06,06,12,00,14.50
2019,06,06,12,01,17.70
2019,06,06,12,02,17.70
2019,06,06,12,03,11.30
2019,06,06,12,04,20.90
2019,06,06,12,05,14.50
2019,06,06,12,06,16.10
2019,06,06,12,07,14.50
2019,06,06,12,08,6.40
2019,06,06,12,09,12.90
2019,06,06,12,10,14.50
2019,06,06,12,11,22.50
2019,06,06,12,12,17.70
2019,06,06,12,13,16.10
2019,06,06,12,14,9.60
2019,06,06,12,15,8.10
2019,06,06,12,16,19.30
2019,06,06,12,17,20.90
2019,06,06,12,18,17.70
2019,06,06,12,19,24.20
2019,06,06,12,20,19.30
2019,06,06,12,21,19.30
2019,06,06,12,22,20.90
2019,06,06,12,23,22.50
2019,06,06,12,24,22.50
2019,06,06,12,25,19.30
2019,06,06,12,26,14.50
2019,06,06,12,27,19.30
2019,06,06,12,28,22.50
2019,06,06,12,29,14.50
2019,06,06,12,30,16.10
2019,06,06,12,31,24.20
2019,06,06,12,32,19.30
2019,06,06,12,33,12.90
2019,06,06,12,34,8.10
2019,06,06,12,35,11.30
2019,06,06,12,36,12.90
2019,06,06,12,37,19.30
2019,06,06,12,38,19.30
2019,06,06,12,39,25.70
2019,06,06,12,40,27.40
2019,06,06,12,41,19.30
2019,06,06,12,42,16.10
2019,06,06,12,43,20.90
2019,06,06,12,44,22.50
2019,06,06,12,45,19.30
2019,06,06,12,46,16.10
2019,06,06,12,47,14.50
2019,06,06,12,48,20.90
2019,06,06,12,49,24.20
2019,06,06,12,50,17.70
2019,06,06,12,51,14.50
2019,06,06,12,52,6.40
2019,06,06,12,53,11.30
2019,06,06,12,54,16.10
2019,06,06,12,55,16.10
2019,06,06,12,56,19.30
2019,06,06,12,57,19.30
2019,06,06,12,58,17.70
2019,06,06,12,59,17.70
2019,06,06,13,00,17.70
2019,06,06,13,01,17.70
2019,06,06,13,02,22.50
2019,06,06,13,03,14.50
2019,06,06,13,04,17.70
2019,06,06,13,05,22.50
2019,06,06,13,06,11.30
2019,06,06,13,07,12.90
2019,06,06,13,08,14.50
2019,06,06,13,09,19.30
2019,06,06,13,10,19.30
2019,06,06,13,11,16.10
2019,06,06,13,12,11.30
2019,06,06,13,13,11.30
2019,06,06,13,14,16.10
2019,06,06,13,15,19.30
2019,06,06,13,16,27.40
2019,06,06,13,17,20.90
2019,06,06,13,18,17.70
2019,06,06,13,19,27.40
2019,06,06,13,20,27.40
2019,06,06,13,21,20.90
2019,06,06,13,22,24.20
2019,06,06,13,23,20.90
2019,06,06,13,24,14.50
2019,06,06,13,25,22.50
2019,06,06,13,26,19.30
2019,06,06,13,27,20.90
2019,06,06,13,28,20.90
2019,06,06,13,29,19.30
2019,06,06,13,30,24.20
2019,06,06,13,31,20.90
2019,06,06,13,32,16.10
2019,06,06,13,33,24.20
2019,06,06,13,34,24.20
2019,06,06,13,35,20.90
2019,06,06,13,36,25.70
2019,06,06,13,37,17.70
2019,06,06,13,38,14.50
2019,06,06,13,39,11.30
2019,06,06,13,40,12.90
2019,06,06,13,41,14.50
2019,06,06,13,42,19.30
2019,06,06,13,43,24.20
2019,06,06,13,44,29.00
2019,06,06,13,45,9.60
2019,06,06,13,46,20.90
2019,06,06,13,47,16.10
2019,06,06,13,48,20.90
2019,06,06,13,49,19.30
2019,06,06,13,50,22.50
2019,06,06,13,51,27.40
2019,06,06,13,52,25.70
2019,06,06,13,53,16.10
2019,06,06,13,54,17.70
2019,06,06,13,55,20.90
2019,06,06,13,56,20.90
2019,06,06,13,57,22.50
2019,06,06,13,58,22.50
2019,06,06,13,59,30.60
2019,06,06,14,00,30.60
2019,06,06,14,01,24.20
2019,06,06,14,02,22.50
2019,06,06,14,03,22.50
2019,06,06,14,04,19.30
2019,06,06,14,05,14.50
2019,06,06,14,06,17.70
2019,06,06,14,07,16.10
2019,06,06,14,08,24.20
2019,06,06,14,09,25.70
2019,06,06,14,10,20.90
2019,06,06,14,11,25.70
2019,06,06,14,12,20.90
2019,06,06,14,13,24.20
2019,06,06,14,14,16.10
2019,06,06,14,15,27.40
2019,06,06,14,16,19.30
2019,06,06,14,17,16.10
2019,06,06,14,18,12.90
2019,06,06,14,19,22.50
2019,06,06,14,20,19.30
2019,06,06,14,21,19.30
2019,06,06,14,22,16.10
2019,06,06,14,23,20.90
2019,06,06,14,24,12.90
2019,06,06,14,25,16.10
2019,06,06,14,26,14.50
2019,06,06,14,27,8.10
2019,06,06,14,28,12.90
2019,06,06,14,29,9.60
2019,06,06,14,30,16.10
2019,06,06,14,31,17.70
2019,06,06,14,32,11.30
2019,06,06,14,33,12.90
2019,06,06,14,34,14.50
2019,06,06,14,35,16.10
2019,06,06,14,36,12.90
2019,06,06,14,37,9.60
2019,06,06,14,38,8.10
2019,06,06,14,39,6.40
2019,06,06,14,40,8.10
2019,06,06,14,41,8.10
2019,06,06,14,42,11.30
2019,06,06,14,43,19.30
2019,06,06,14,44,20.90
2019,06,06,14,45,22.50
2019,06,06,14,46,14.50
2019,06,06,14,47,11.30
2019,06,06,14,48,9.60
2019,06,06,14,49,12.90
2019,06,06,14,50,14.50
2019,06,06,14,51,20.90
2019,06,06,14,52,22.50
2019,06,06,14,53,17.70
2019,06,06,14,54,16.10
2019,06,06,14,55,20.90
2019,06,06,14,56,24.20
2019,06,06,14,57,16.10
2019,06,06,14,58,20.90
2019,06,06,14,59,11.30
2019,06,06,15,00,19.30
2019,06,06,15,01,19.30
2019,06,06,15,02,20.90
2019,06,06,15,03,19.30
2019,06,06,15,04,12.90
2019,06,06,15,05,12.90
2019,06,06,15,06,9.60
2019,06,06,15,07,17.70
2019,06,06,15,08,16.10
2019,06,06,15,09,14.50
2019,06,06,15,10,14.50
2019,06,06,15,11,14.50
2019,06,06,15,12,17.70
2019,06,06,15,13,11.30
2019,06,06,15,14,12.90
2019,06,06,15,15,12.90
2019,06,06,15,16,11.30
2019,06,06,15,17,11.30
2019,06,06,15,18,11.30
2019,06,06,15,19,11.30
2019,06,06,15,20,9.60
2019,06,06,15,21,12.90
2019,06,06,15,22,12.90
2019,06,06,15,23,11.30
2019,06,06,15,24,9.60
2019,06,06,15,25,6.40
2019,06,06,15,26,8.10
2019,06,06,15,27,17.70
2019,06,06,15,28,9.60
2019,06,06,15,29,6.40
2019,06,06,15,30,9.60
2019,06,06,15,31,6.40
2019,06,06,15,32,11.30
2019,06,06,15,33,4.80
2019,06,06,15,34,4.80
2019,06,06,15,35,9.60
2019,06,06,15,36,8.10
2019,06,06,15,37,6.40
2019,06,06,15,38,6.40
2019,06,06,15,39,8.10
2019,06,06,15,40,6.40
2019,06,06,15,41,6.40
2019,06,06,15,42,9.60
2019,06,06,15,43,9.60
2019,06,06,15,44,6.40
2019,06,06,15,45,8.10
2019,06,06,15,46,8.10
2019,06,06,15,47,8.10
2019,06,06,15,48,9.60
2019,06,06,15,49,9.60
2019,06,06,15,50,12.90
2019,06,06,15,51,8.10
2019,06,06,15,52,6.40
2019,06,06,15,53,6.40
2019,06,06,15,54,6.40
2019,06,06,15,55,6.40
2019,06,06,15,56,4.80
2019,06,06,15,57,4.80
2019,06,06,15,58,3.20
2019,06,06,15,59,3.20
2019,06,06,16,00,6.40
2019,06,06,16,01,8.10
2019,06,06,16,02,6.40
2019,06,06,16,03,1.60
2019,06,06,16,04,1.60
2019,06,06,16,05,3.20
2019,06,06,16,06,3.20
2019,06,06,16,07,6.40
2019,06,06,16,08,4.80
2019,06,06,16,09,3.20
2019,06,06,16,10,3.20
2019,06,06,16,11,3.20
2019,06,06,16,12,4.80
2019,06,06,16,13,4.80
2019,06,06,16,14,3.20
2019,06,06,16,15,3.20
2019,06,06,16,16,1.60
2019,06,06,16,17,1.60
2019,06,06,16,18,3.20
2019,06,06,16,19,1.60
2019,06,06,16,20,3.20
2019,06,06,16,21,3.20
2019,06,06,16,22,3.20
2019,06,06,16,23,3.20
2019,06,06,16,24,1.60
2019,06,06,16,25,3.20
2019,06,06,16,26,3.20
2019,06,06,16,27,4.80
2019,06,06,16,28,3.20
2019,06,06,16,29,4.80
2019,06,06,16,30,4.80
2019,06,06,16,31,4.80
2019,06,06,16,32,4.80
2019,06,06,16,33,3.20
2019,06,06,16,34,3.20
2019,06,06,16,35,4.80
2019,06,06,16,36,3.20
2019,06,06,16,37,1.60
2019,06,06,16,38,9.60
2019,06,06,16,39,6.40
2019,06,06,16,40,8.10
2019,06,06,16,41,6.40
2019,06,06,16,42,4.80
2019,06,06,16,43,9.60
2019,06,06,16,44,6.40
2019,06,06,16,45,4.80
2019,06,06,16,46,12.90
2019,06,06,16,47,14.50
2019,06,06,16,48,4.80
2019,06,06,16,49,4.80
2019,06,06,16,50,3.20
2019,06,06,16,51,8.10
2019,06,06,16,52,9.60
2019,06,06,16,53,14.50
2019,06,06,16,54,14.50
2019,06,06,16,55,4.80
2019,06,06,16,56,6.40
2019,06,06,16,57,8.10
2019,06,06,16,58,6.40
2019,06,06,16,59,8.10
2019,06,06,17,00,9.60
2019,06,06,17,01,8.10
2019,06,06,17,02,12.90
2019,06,06,17,03,12.90
2019,06,06,17,04,12.90
2019,06,06,17,05,14.50
2019,06,06,17,06,16.10
2019,06,06,17,07,9.60
2019,06,06,17,08,12.90
2019,06,06,17,09,3.20
2019,06,06,17,10,14.50
2019,06,06,17,11,6.40
2019,06,06,17,12,11.30
2019,06,06,17,13,4.80
2019,06,06,17,14,19.30
2019,06,06,17,15,16.10
2019,06,06,17,16,6.40
2019,06,06,17,17,6.40
2019,06,06,17,18,3.20
2019,06,06,17,19,9.60
2019,06,06,17,20,6.40
2019,06,06,17,21,4.80
2019,06,06,17,22,3.20
2019,06,06,17,23,8.10
2019,06,06,17,24,8.10
2019,06,06,17,25,11.30
2019,06,06,17,26,9.60
2019,06,06,17,27,8.10
2019,06,06,17,28,9.60
2019,06,06,17,29,16.10
2019,06,06,17,30,12.90
2019,06,06,17,31,9.60
2019,06,06,17,32,9.60
2019,06,06,17,33,6.40
2019,06,06,17,34,6.40
2019,06,06,17,35,6.40
2019,06,06,17,36,3.20
2019,06,06,17,37,4.80
2019,06,06,17,38,14.50
2019,06,06,17,39,14.50
2019,06,06,17,40,9.60
2019,06,06,17,41,6.40
2019,06,06,17,42,12.90
2019,06,06,17,43,11.30
2019,06,06,17,44,12.90
2019,06,06,17,45,8.10
2019,06,06,17,46,4.80
2019,06,06,17,47,8.10
2019,06,06,17,48,12.90
2019,06,06,17,49,14.50
2019,06,06,17,50,14.50
2019,06,06,17,51,9.60
2019,06,06,17,52,9.60
2019,06,06,17,53,12.90
2019,06,06,17,54,12.90
2019,06,06,17,55,9.60
2019,06,06,17,56,6.40
2019,06,06,17,57,6.40
2019,06,06,17,58,9.60
2019,06,06,17,59,11.30
2019,06,06,18,00,4.80
2019,06,06,18,01,6.40
2019,06,06,18,02,8.10
2019,06,06,18,03,4.80
2019,06,06,18,04,6.40
2019,06,06,18,05,4.80
2019,06,06,18,06,8.10
2019,06,06,18,07,6.40
2019,06,06,18,08,14.50
2019,06,06,18,09,11.30
2019,06,06,18,10,6.40
2019,06,06,18,11,6.40
2019,06,06,18,12,6.40
2019,06,06,18,13,4.80
2019,06,06,18,14,4.80
2019,06,06,18,15,11.30
2019,06,06,18,16,6.40
2019,06,06,18,17,8.10
2019,06,06,18,18,4.80
2019,06,06,18,19,4.80
2019,06,06,18,20,3.20
2019,06,06,18,21,3.20
2019,06,06,18,22,4.80
2019,06,06,18,23,4.80
2019,06,06,18,24,6.40
2019,06,06,18,25,6.40
2019,06,06,18,26,4.80
2019,06,06,18,27,4.80
2019,06,06,18,28,8.10
2019,06,06,18,29,6.40
2019,06,06,18,30,6.40
2019,06,06,18,31,3.20
2019,06,06,18,32,4.80
2019,06,06,18,33,4.80
2019,06,06,18,34,4.80
2019,06,06,18,35,4.80
2019,06,06,18,36,6.40
2019,06,06,18,37,4.80
2019,06,06,18,38,3.20
2019,06,06,18,39,3.20
2019,06,06,18,40,4.80
2019,06,06,18,41,6.40
2019,06,06,18,42,8.10
2019,06,06,18,43,8.10
2019,06,06,18,44,3.20
2019,06,06,18,45,4.80
2019,06,06,18,46,6.40
2019,06,06,18,47,4.80
2019,06,06,18,48,12.90
2019,06,06,18,49,9.60
2019,06,06,18,50,6.40
2019,06,06,18,51,9.60
2019,06,06,18,52,11.30
2019,06,06,18,53,4.80
2019,06,06,18,54,3.20
2019,06,06,18,55,8.10
2019,06,06,18,56,6.40
2019,06,06,18,57,6.40
2019,06,06,18,58,8.10
2019,06,06,18,59,11.30
2019,06,06,19,00,8.10
2019,06,06,19,01,8.10
2019,06,06,19,02,6.40
2019,06,06,19,03,6.40
2019,06,06,19,04,6.40
2019,06,06,19,05,6.40
2019,06,06,19,06,4.80
2019,06,06,19,07,4.80
2019,06,06,19,08,4.80
2019,06,06,19,09,3.20
2019,06,06,19,10,4.80
2019,06,06,19,11,4.80
2019,06,06,19,12,6.40
2019,06,06,19,13,4.80
2019,06,06,19,14,3.20
2019,06,06,19,15,3.20
2019,06,06,19,16,4.80
2019,06,06,19,17,6.40
2019,06,06,19,18,4.80
2019,06,06,19,19,6.40
2019,06,06,19,20,6.40
2019,06,06,19,21,11.30
2019,06,06,19,22,4.80
2019,06,06,19,23,3.20
2019,06,06,19,24,3.20
2019,06,06,19,25,1.60
2019,06,06,19,26,3.20
2019,06,06,19,27,3.20
2019,06,06,19,28,1.60
2019,06,06,19,29,4.80
2019,06,06,19,30,8.10
2019,06,06,19,31,9.60
2019,06,06,19,32,6.40
2019,06,06,19,33,6.40
2019,06,06,19,34,4.80
2019,06,06,19,35,1.60
2019,06,06,19,36,3.20
2019,06,06,19,37,6.40
2019,06,06,19,38,6.40
2019,06,06,19,39,4.80
2019,06,06,19,40,6.40
2019,06,06,19,41,4.80
2019,06,06,19,42,6.40
2019,06,06,19,43,8.10
2019,06,06,19,44,4.80
2019,06,06,19,45,4.80
2019,06,06,19,46,6.40
2019,06,06,19,47,6.40
2019,06,06,19,48,6.40
2019,06,06,19,49,4.80
2019,06,06,19,50,9.60
2019,06,06,19,51,9.60
2019,06,06,19,52,3.20
2019,06,06,19,53,3.20
2019,06,06,19,54,3.20
2019,06,06,19,55,4.80
2019,06,06,19,56,3.20
2019,06,06,19,57,1.60
2019,06,06,19,58,4.80
2019,06,06,19,59,6.40
2019,06,06,20,00,3.20
2019,06,06,20,01,3.20
2019,06,06,20,02,3.20
2019,06,06,20,03,4.80
2019,06,06,20,04,4.80
2019,06,06,20,05,3.20
2019,06,06,20,06,6.40
2019,06,06,20,07,8.10
2019,06,06,20,08,8.10
2019,06,06,20,09,4.80
2019,06,06,20,10,1.60
2019,06,06,20,11,1.60
2019,06,06,20,40,6.40
2019,06,06,20,41,4.80
2019,06,06,20,42,3.20
2019,06,06,20,43,4.80
2019,06,06,20,44,3.20
2019,06,06,20,45,1.60
2019,06,06,20,46,3.20
2019,06,06,20,47,3.20
2019,06,06,20,48,3.20
2019,06,06,20,49,4.80
2019,06,06,20,50,4.80
2019,06,06,20,51,3.20
2019,06,06,20,52,3.20
2019,06,06,20,53,4.80
2019,06,06,20,54,4.80
2019,06,06,20,55,3.20
2019,06,06,20,56,3.20
2019,06,06,20,57,1.60
2019,06,06,20,58,3.20
2019,06,06,20,59,3.20
2019,06,06,21,00,3.20
2019,06,06,21,01,3.20
2019,06,06,21,02,3.20
2019,06,06,21,03,3.20
2019,06,06,21,04,1.60
2019,06,06,21,06,3.20
2019,06,06,21,07,4.80
2019,06,06,21,08,4.80
2019,06,06,21,09,3.20
2019,06,06,21,10,3.20
2019,06,06,21,11,4.80
2019,06,06,21,12,4.80
2019,06,06,21,13,4.80
2019,06,06,21,14,4.80
2019,06,06,21,15,4.80
2019,06,06,21,16,3.20
2019,06,06,21,17,3.20
2019,06,06,21,18,3.20
2019,06,06,21,19,1.60
2019,06,06,21,20,4.80
2019,06,06,21,21,3.20
2019,06,06,21,22,3.20
2019,06,06,21,23,3.20
2019,06,06,21,24,3.20
2019,06,06,21,25,4.80
2019,06,06,21,26,4.80
2019,06,06,21,27,4.80
2019,06,06,21,28,4.80
2019,06,06,21,29,4.80
2019,06,06,21,30,4.80
2019,06,06,21,31,4.80
2019,06,06,21,32,4.80
2019,06,06,21,33,4.80
2019,06,06,21,34,4.80
2019,06,06,21,35,4.80
2019,06,06,21,36,3.20
2019,06,06,21,37,3.20
2019,06,06,21,38,3.20